Date String (YYYY-MM-DD hh:mm:ss) UTC,Instrument flags,Ambient pressure (hPa),Sample flow (lpm),Bypass flow (lpm),Sample temperature (°C),Ambient temperature (°C),ASC tube jacket temperature (°C),LED temperature (°C),Box temperature (°C),Sample RH (%),Span deviation,Mass concentration (μg/m³),Mass concentration (μg/m³),Mass concentration (μg/m³)
DateTimeUTC,F1_M11,P_M11,Q1_M11,Q2_M11,T1_M11,T2_M11,T3_M11,T4_M11,T5_M11,U1_M11,ZSPAN_M11,X0_M11,X2_M11,X1_M11
2022-11-18 10:00:00,,0832.3,5.00,0.00,22.1,22.1,00.0,30.9,24.0,08.5,0000.0,0006.42,0003.98,0003.80
2022-11-18 10:01:00,,0832.3,4.99,0.00,22.2,22.0,00.0,30.9,24.1,08.5,0000.0,0005.74,0004.01,0003.80
2022-11-18 10:02:00,,0832.3,4.99,0.00,22.1,21.6,00.0,31.0,24.0,08.5,0000.0,0005.72,0004.00,0003.79
2022-11-18 10:03:00,,0832.3,5.00,0.00,22.1,21.3,00.0,31.0,23.9,08.4,0000.0,0005.69,0004.00,0003.80
2022-11-18 10:04:00,,0832.4,5.00,0.00,22.1,21.0,00.0,31.0,23.8,08.5,0000.0,0005.61,0003.97,0003.79
2022-11-18 10:05:00,,0832.3,5.01,0.00,22.0,20.8,00.0,31.0,23.8,08.5,0000.0,0005.35,0003.96,0003.78
2022-11-18 10:06:00,,0832.3,5.00,0.00,22.0,20.6,00.0,31.0,23.7,08.5,0000.0,0005.39,0003.97,0003.77
2022-11-18 10:07:00,,0832.3,5.00,0.00,22.0,20.4,00.0,31.0,23.6,08.5,0000.0,0005.51,0004.00,0003.77
2022-11-18 10:08:00,,0832.2,5.00,0.00,21.9,20.2,00.0,31.0,23.6,08.5,0000.0,0005.44,0004.01,0003.77
2022-11-18 10:09:00,,0832.3,5.01,0.00,21.9,20.4,00.0,30.9,23.6,08.5,0000.0,0005.68,0004.02,0003.77
2022-11-18 10:10:00,,0832.3,5.01,0.00,22.0,21.3,00.0,30.9,23.8,08.5,0000.0,0005.70,0004.01,0003.76
2022-11-18 10:11:00,,0832.2,4.99,0.00,22.1,22.0,00.0,30.9,24.0,08.4,0000.0,0005.80,0004.02,0003.75
2022-11-18 10:12:00,,0832.1,4.99,0.00,22.1,21.7,00.0,30.9,24.0,08.4,0000.0,0005.71,0003.99,0003.74
2022-11-18 10:13:00,,0832.1,5.00,0.00,22.1,21.2,00.0,31.0,23.9,08.4,0000.0,0005.74,0003.98,0003.73
2022-11-18 10:14:00,,0832.1,5.00,0.00,22.0,20.9,00.0,31.0,23.8,08.4,0000.0,0005.75,0003.97,0003.71
2022-11-18 10:15:00,,0832.1,5.00,0.00,22.0,20.5,00.0,30.9,23.6,08.5,0000.0,0005.74,0003.96,0003.70
2022-11-18 10:16:00,,0832.1,5.00,0.00,21.9,20.1,00.0,30.9,23.5,08.5,0000.0,0005.72,0003.96,0003.69
2022-11-18 10:17:00,,0832.1,5.00,0.00,21.8,19.9,00.0,30.9,23.4,08.5,0000.0,0005.57,0003.92,0003.68
2022-11-18 10:18:00,,0832.0,5.00,0.00,21.8,19.8,00.0,30.9,23.3,08.5,0000.0,0005.52,0003.90,0003.68
2022-11-18 10:19:00,,0832.0,5.01,0.00,21.7,19.9,00.0,30.8,23.3,08.6,0000.0,0005.38,0003.87,0003.66
2022-11-18 10:20:00,,0832.0,5.00,0.00,21.8,20.9,00.0,30.8,23.5,08.5,0000.0,0005.26,0003.84,0003.65
2022-11-18 10:21:00,,0832.0,5.00,0.00,21.9,21.9,00.0,30.8,23.8,08.5,0000.0,0005.38,0003.84,0003.65
2022-11-18 10:22:00,,0832.1,4.99,0.00,22.0,21.7,00.0,30.8,23.8,08.5,0000.0,0005.44,0003.85,0003.64
2022-11-18 10:23:00,,0832.1,5.01,0.00,21.9,21.2,00.0,30.8,23.7,08.5,0000.0,0005.44,0003.84,0003.62
2022-11-18 10:24:00,,0832.1,5.00,0.00,21.9,20.8,00.0,30.8,23.6,08.5,0000.0,0005.47,0003.84,0003.61
2022-11-18 10:25:00,,0832.1,5.00,0.00,21.9,20.4,00.0,30.8,23.5,08.5,0000.0,0005.49,0003.84,0003.60
2022-11-18 10:26:00,,0832.1,5.00,0.00,21.8,20.1,00.0,30.8,23.4,08.5,0000.0,0005.53,0003.85,0003.60
2022-11-18 10:27:00,,0832.1,5.00,0.00,21.8,19.9,00.0,30.8,23.3,08.5,0000.0,0005.55,0003.84,0003.58
2022-11-18 10:28:00,,0832.0,5.01,0.00,21.7,19.7,00.0,30.8,23.2,08.5,0000.0,0005.55,0003.83,0003.57
2022-11-18 10:29:00,,0832.0,5.01,0.00,21.6,19.6,00.0,30.7,23.2,08.6,0000.0,0005.47,0003.82,0003.56
2022-11-18 10:30:00,,0832.0,5.01,0.00,21.6,19.5,00.0,30.7,23.1,08.6,0000.0,0005.51,0003.82,0003.55
2022-11-18 10:31:00,,0832.0,5.00,0.00,21.6,20.6,00.0,30.6,23.3,08.6,0000.0,0005.44,0003.82,0003.54
2022-11-18 10:32:00,,0832.1,5.00,0.00,21.7,21.7,00.0,30.6,23.6,08.5,0000.0,0005.21,0003.83,0003.55
2022-11-18 10:33:00,,0832.1,4.99,0.00,21.8,21.7,00.0,30.6,23.7,08.5,0000.0,0005.02,0003.77,0003.53
2022-11-18 10:34:00,,0832.1,4.99,0.00,21.8,21.2,00.0,30.7,23.6,08.5,0000.0,0005.00,0003.78,0003.54
2022-11-18 10:35:00,,0832.1,5.00,0.00,21.8,20.8,00.0,30.7,23.5,08.5,0000.0,0005.13,0003.80,0003.56
2022-11-18 10:36:00,,0832.1,5.00,0.00,21.7,20.4,00.0,30.7,23.4,08.5,0000.0,0005.13,0003.80,0003.57
2022-11-18 10:37:00,,0832.0,5.00,0.00,21.7,20.1,00.0,30.7,23.3,08.6,0000.0,0005.09,0003.80,0003.57
2022-11-18 10:38:00,,0832.0,5.01,0.00,21.6,19.8,00.0,30.6,23.2,08.6,0000.0,0005.04,0003.79,0003.57
2022-11-18 10:39:00,,0832.1,5.01,0.00,21.6,19.7,00.0,30.6,23.2,08.6,0000.0,0005.03,0003.81,0003.59
2022-11-18 10:40:00,,0832.1,5.00,0.00,21.5,19.6,00.0,30.6,23.1,08.6,0000.0,0005.44,0003.82,0003.60
2022-11-18 10:41:00,,0832.1,4.99,0.00,21.5,19.8,00.0,30.6,23.1,08.6,0000.0,0005.80,0003.84,0003.61
2022-11-18 10:42:00,,0832.1,5.00,0.00,21.6,21.0,00.0,30.5,23.4,08.6,0000.0,0005.76,0003.84,0003.61
2022-11-18 10:43:00,,0832.1,4.99,0.00,21.7,21.8,00.0,30.5,23.6,08.6,0000.0,0005.77,0003.83,0003.61
2022-11-18 10:44:00,,0832.0,4.99,0.00,21.7,21.4,00.0,30.6,23.6,08.5,0000.0,0005.90,0003.85,0003.60
2022-11-18 10:45:00,,0832.0,5.00,0.00,21.7,21.0,00.0,30.6,23.5,08.5,0000.0,0005.86,0003.83,0003.59
2022-11-18 10:46:00,,0831.9,5.00,0.00,21.7,20.7,00.0,30.6,23.5,08.5,0000.0,0005.69,0003.79,0003.57
2022-11-18 10:47:00,,0832.0,4.99,0.00,21.7,20.5,00.0,30.6,23.4,08.5,0000.0,0005.67,0003.80,0003.56
2022-11-18 10:48:00,,0832.0,5.01,0.00,21.7,20.4,00.0,30.6,23.4,08.5,0000.0,0006.64,0003.79,0003.55
2022-11-18 10:49:00,,0832.0,5.00,0.00,21.6,20.2,00.0,30.6,23.3,08.4,0000.0,0007.00,0003.79,0003.54
2022-11-18 10:50:00,,0832.0,5.00,0.00,21.6,20.2,00.0,30.6,23.3,08.4,0000.0,0007.45,0003.78,0003.53
2022-11-18 10:51:00,,0832.0,5.00,0.00,21.6,20.3,00.0,30.6,23.3,08.4,0000.0,0007.21,0003.76,0003.51
2022-11-18 10:52:00,,0831.9,5.02,0.00,21.7,21.2,00.0,30.6,23.5,08.4,0000.0,0006.99,0003.73,0003.49
2022-11-18 10:53:00,,0832.0,4.99,0.00,21.8,21.9,00.0,30.6,23.7,08.3,0000.0,0007.18,0003.72,0003.48
2022-11-18 10:54:00,,0831.9,4.99,0.00,21.8,21.7,00.0,30.6,23.8,08.3,0000.0,0007.16,0003.72,0003.48
2022-11-18 10:55:00,,0831.9,5.00,0.00,21.8,21.3,00.0,30.7,23.7,08.3,0000.0,0007.07,0003.71,0003.49
2022-11-18 10:56:00,,0832.0,5.00,0.00,21.8,21.0,00.0,30.7,23.6,08.3,0000.0,0007.14,0003.74,0003.50
2022-11-18 10:57:00,,0832.0,4.98,0.00,21.8,20.7,00.0,30.7,23.5,08.3,0000.0,0007.30,0003.79,0003.52
2022-11-18 10:58:00,,0832.0,5.00,0.00,21.8,20.6,00.0,30.7,23.5,08.3,0000.0,0007.20,0003.79,0003.52
2022-11-18 10:59:00,,0832.0,5.00,0.00,21.8,20.5,00.0,30.7,23.5,08.3,0000.0,0006.33,0003.80,0003.52
